DADOS DO TEMPO

HOJE
Time Temp. Dewp. Hum. Direção Velocidade Wind gust Bar. 1h Prec. 24h Prec.
00:08 15.9 15.7 99 90 0.3 0.8 1011.9 0.0000 0.0000
00:19 15.9 15.6 98 150 0.3 1.1 1012.1 0.0000 0.0000
00:29 15.9 15.6 98 135 0.3 1.9 1012.1 0.0000 0.0000
00:39 15.9 15.4 97 161 0.3 1.1 1011.9 0.0000 0.0000
00:49 15.8 15.2 96 206 0.3 0.8 1011.9 0.0000 0.0000
00:59 15.8 15.3 97 161 0.3 1.7 1012 0.0000 0.0000
01:09 15.8 15.5 98 135 0.3 1.1 1012 0.0000 0.0000
01:19 15.8 15.5 98 198 0.3 0.8 1012 0.0000 0.0000
01:29 15.7 15.4 98 225 0.3 1.1 1012 0.0000 0.0000
01:40 15.6 15.3 98 210 0.3 1.1 1011.9 0.0000 0.0000
01:49 15.6 15.3 98 225 0.3 0.8 1012 0.0000 0.0000
01:59 15.5 15.2 98 225 0.3 1.1 1012 0.0000 0.0000
02:10 15.4 15.1 98 180 0.3 0.8 1012 0.0000 0.0000
02:20 15.3 15.1 99 215 0.3 0.8 1012 0.0000 0.0000
02:30 15.2 15 99 135 0.3 0.8 1012.1 0.0000 0.0000
02:40 15.2 15 99 90 0.3 1.1 1012.1 0.0000 0.0000
02:50 15.1 14.9 99 0 0.8 1012.2 0.0000 0.0000
03:00 15.1 14.9 99 90 0.3 0.8 1012.1 0.0000 0.0000
03:10 15.1 14.9 99 57 0.3 0.8 1012 0.0000 0.0000
03:21 15.2 15 99 90 0.3 0.8 1012 0.0000 0.0000
03:31 15.2 15 99 90 0.3 0.8 1012 0.0000 0.0000
03:41 15.1 14.8 98 90 0.3 1.1 1012.1 0.0000 0.0000
03:50 15.1 14.8 98 90 0.3 2.8 1012 0.0000 0.0000
04:01 15.1 14.8 98 127 0.3 1.7 1012 0.0000 0.0000
04:11 15.1 14.8 98 90 0.3 1.7 1012 0.0000 0.0000
04:21 15.1 14.8 98 90 0.3 0.8 1012 0.0000 0.0000
04:31 15.1 14.8 98 135 0.3 1.7 1012 0.0000 0.0000
04:41 15.1 14.9 99 90 0.3 1.1 1012 0.0000 0.0000
04:51 15.1 14.9 99 125 0.3 1.1 1012 0.0000 0.0000
05:01 15.1 14.9 99 126 0.3 1.7 1012 0.0000 0.0000
05:12 15.1 14.9 99 125 0.3 1.1 1012 0.0000 0.0000
05:22 15 14.7 98 135 0.3 1.7 1012 0.0000 0.0000
05:32 15 14.7 98 135 0.3 1.9 1012 0.0000 0.0000
05:42 14.9 14.6 98 127 0.3 1.7 1011.9 0.0000 0.0000
05:52 14.9 14.6 98 135 0.3 1.7 1012 0.0000 0.0000
06:02 14.9 14.6 98 90 0.3 1.7 1012 0.0000 0.0000
06:12 14.9 14.6 98 168 0.3 1.7 1012 0.0000 0.0000
06:23 14.8 14.5 98 189 0.3 1.1 1012 0.0000 0.0000
06:32 14.8 14.5 98 225 0.3 1.7 1012 0.0000 0.0000
06:42 14.8 14.5 98 218 0.3 1.7 1012 0.0000 0.0000
06:52 14.8 14.5 98 218 0.3 1.7 1012 0.0000 0.0000
07:03 14.7 14.4 98 180 0.3 1.7 1012.1 0.0000 0.0000
07:13 14.8 14.5 98 90 0.3 0.8 1012.3 0.0000 0.0000
07:23 14.7 14.4 98 203 0.3 1.1 1012.4 0.0000 0.0000
07:33 14.7 14.4 98 217 0.3 1.9 1012.5 0.0000 0.0000
07:43 14.7 14.2 97 135 0.3 1.1 1012.5 0.0000 0.0000
07:53 14.7 14.4 98 225 0.3 1.7 1012.5 0.0000 0.0000
08:03 14.7 14.2 97 158 0.3 1.7 1012.6 0.0000 0.0000
08:14 14.7 14.1 96 172 0.8 1.9 1012.6 0.0000 0.0000
08:24 14.7 14.1 96 173 0.3 2.8 1012.6 0.0000 0.0000
08:33 14.8 14.3 97 180 0.3 1.7 1012.6 0.0000 0.0000
08:44 14.8 14.2 96 206 0.8 1.7 1012.6 0.0000 0.0000
08:54 14.8 14.2 96 180 0.3 1.7 1012.6 0.0000 0.0000
09:04 14.8 14.2 96 208 0.8 2.8 1012.7 0.0000 0.0000
09:14 14.8 14 95 180 0.8 1.9 1012.7 0.0000 0.0000
09:24 14.9 14.3 96 180 0.3 1.7 1012.7 0.0000 0.0000
09:34 14.9 14.1 95 180 0.8 2.8 1012.7 0.0000 0.0000
09:44 14.9 14.1 95 218 0.8 2.5 1012.7 0.0000 0.0000
09:54 15 14.2 95 198 0.3 1.9 1012.9 0.0000 0.0000
10:04 15 14.2 95 196 0.8 1.9 1012.9 0.0000 0.0000
10:14 15 14 94 215 0.8 2.5 1013 0.0000 0.0000
10:24 15 13.9 93 180 0.3 2.5 1013 0.0000 0.0000
10:35 14.9 13.8 93 135 0.3 1.9 1013.2 0.0000 0.0000
10:45 14.9 13.6 92 143 0.3 1.9 1013.3 0.0000 0.0000
10:55 14.9 13.8 93 180 0.3 1.7 1013.2 0.0000 0.0000
11:05 14.9 13.8 93 204 0.3 1.9 1013.3 0.0000 0.0000
11:15 14.8 13.7 93 198 0.8 2.5 1013.3 0.0000 0.0000
11:25 14.8 13.8 94 176 0.8 1.9 1013.3 0.0000 0.0000
11:35 14.8 13.8 94 184 0.3 1.9 1013.3 0.0000 0.0000
11:46 14.8 13.8 94 217 0.3 1.9 1013.3 0.0000 0.0000
11:56 14.8 13.8 94 216 0.3 2.5 1013.4 0.0000 0.0000
12:05 14.8 14 95 198 0.3 1.7 1013.5 0.0000 0.0000
12:15 14.8 14 95 172 0.3 1.9 1013.5 0.0000 0.0000
12:26 14.8 14.2 96 195 0.3 1.7 1013.5 0.0000 0.0000
12:36 14.9 14.3 96 168 0.3 1.9 1013.5 0.0000 0.0000
12:46 14.9 14.4 97 213 0.3 1.7 1013.6 0.0000 0.0000
12:56 14.8 14.5 98 184 0.3 2.5 1013.6 0.0000 0.0000
13:06 14.9 14.6 98 191 0.3 1.9 1013.6 0.0000 0.0000
13:16 14.9 14.7 99 180 0.3 1.1 1013.6 0.0000 0.0000
13:26 15 14.8 99 191 0.3 1.7 1013.7 0.0000 0.0000
13:37 15.1 14.9 99 170 0.3 1.1 1013.7 0.0000 0.0000
13:47 15.2 15 99 180 0.3 1.1 1013.7 0.0000 0.0000
13:56 15.2 15 99 173 0.3 1.1 1013.7 0.0000 0.0000
14:07 15.3 15.1 99 161 0.3 1.7 1013.7 0.0000 0.0000
14:17 15.4 15.2 99 165 0.3 1.7 1013.6 0.0000 0.0000
14:27 15.6 15.4 99 153 0.3 1.7 1013.6 0.0000 0.0000
14:37 15.8 15.6 99 156 0.3 1.7 1013.5 0.0000 0.0000
14:48 15.9 15.7 99 138 0.3 1.7 1013.5 0.0000 0.0000
14:57 16 15.7 98 173 0.3 1.9 1013.5 0.0000 0.0000
15:07 16.1 15.8 98 155 0.3 2.5 1013.5 0.0000 0.0000
15:17 16.2 15.9 98 159 0.8 2.5 1013.4 0.0000 0.0000
15:28 16.2 15.9 98 153 0.8 1.9 1013.4 0.0000 0.0000
15:38 16.2 15.9 98 161 0.3 1.7 1013.5 0.0000 0.0000
15:48 16.3 16.1 99 135 0.3 1.1 1013.5 0.0000 0.0000
15:58 16.2 15.9 98 150 0.3 1.7 1013.4 0.0000 0.0000
16:08 16.3 16.1 99 135 0.3 1.7 1013.4 0.0000 0.0000
16:17 16.3 16.1 99 126 0.3 1.9 1013.2 0.0000 0.0000
16:28 16.3 16.1 99 144 0.3 1.7 1013.2 0.0000 0.0000
16:39 16.4 16.2 99 142 0.3 1.7 1013.3 0.0000 0.0000
16:49 16.4 16.2 99 145 0.3 1.9 1013.3 0.0000 0.0000
16:58 16.4 16.1 98 170 0.8 2.8 1013.4 0.0000 0.0000
17:09 16.2 15.9 98 180 0.8 2.8 1013.5 0.0000 0.0000
17:19 15.9 15.7 99 180 0.3 1.7 1013.5 0.0000 0.0000
17:29 15.8 15.6 99 198 0.3 1.1 1013.5 0.0000 0.0000
17:39 15.8 15.5 98 149 0.3 0.8 1013.4 0.0000 0.0000
17:50 15.9 15.6 98 135 0.3 0.8 1013.4 0.0000 0.0000
17:59 15.9 15.6 98 161 0.3 0.8 1013.3 0.0000 0.0000
18:09 16 15.7 98 0 0.8 1013.4 0.0000 0.0000
18:16 16 15.7 98 90 1.1 5.8 1013.6 0.3030 0.3000
18:25 15.7 15.4 98 322 1.1 3.3 1013.6 2.3240 2.3000
18:36 15.6 15.3 98 334 1.1 2.5 1013.6 2.8290 2.8000
18:46 15.5 15 97 338 1.1 2.5 1013.6 2.8290 2.8000
18:56 15.4 14.9 97 315 0.3 1.1 1013.6 2.9300 2.9000
19:06 15.4 14.9 97 330 0.3 0.8 1013.6 2.9300 2.9000
19:17 15.4 14.9 97 0 0.3 1.7 1013.6 1.0100 2.9000
19:26 15.4 14.9 97 270 0.3 0.8 1013.7 0.3030 2.9000
19:36 15.3 14.8 97 18 0.3 1.1 1013.8 0.1010 2.9000

ESTATÍSTICAS DO DIA

2021-09-18
TEMPERATURA
MÉDIA
15.3
MÁXIMO
16.4
16:39
MÍNIMO
14.7
07:03
PRESSÃO
MÉDIA
1012.8
MÁXIMO
1013.8
19:36
MÍNIMO
1011.9
00:08
PONTO DE ORVALHO
MÉDIA
14.9
MÁXIMO
16.2
16:39
MÍNIMO
13.6
10:45
UMIDADE
MÉDIA
97
MÁXIMO
99
00:08
MÍNIMO
92
10:45
VELOCIDADE DOS VENTOS
MÉDIA
0.4
MÁXIMO
1.1
18:16
WIND GUST
MÉDIA
1.6
MÁXIMO
5.8
18:16
DIREÇÃO DOS VENTOS
PREDOMINANTE
S
38.5%
N
2.6
NE
0.9
E
11.1
SE
25.6
S
38.5
SO
15.4
O
0.9
NO
3.4
PRECIPITAÇÃO
PRECIPITAÇÃO HORÁRIA
2.9
PRECIPITAÇÃO DIÁRIA
2.9
TEMPERATURA (°C)
MÍNIMO
14.7
MÁXIMO
16.4
MÉDIA
15.3
PRESSÃO (hpa)
MÍNIMO
1011.9
MÁXIMO
1013.8
MÉDIA
1012.8
DEVICE